TimeCDT,TemperatureF,Dew PointF,Humidity,Sea Level PressureIn,VisibilityMPH,Wind Direction,Wind SpeedMPH,Gust SpeedMPH,PrecipitationIn,Events,Conditions,WindDirDegrees,DateUTC
12:54 AM,48.0,36.0,63,30.00,10.0,SSE,6.9,-,N/A,,Clear,160,2012-10-09 05:54:00
1:54 AM,46.9,36.0,66,29.98,10.0,SSE,9.2,-,N/A,,Clear,160,2012-10-09 06:54:00
2:54 AM,48.0,37.0,66,29.96,10.0,South,11.5,-,N/A,,Clear,170,2012-10-09 07:54:00
3:54 AM,48.0,37.0,66,29.94,10.0,South,10.4,-,N/A,,Clear,170,2012-10-09 08:54:00
4:54 AM,48.0,37.9,68,29.92,10.0,South,13.8,-,N/A,,Clear,170,2012-10-09 09:54:00
5:54 AM,48.0,39.0,71,29.91,10.0,South,15.0,-,N/A,,Clear,170,2012-10-09 10:54:00
6:54 AM,48.0,41.0,77,29.91,10.0,South,11.5,-,N/A,,Clear,170,2012-10-09 11:54:00
7:54 AM,48.0,42.1,80,29.91,10.0,SSE,8.1,-,N/A,,Clear,160,2012-10-09 12:54:00
8:54 AM,51.1,44.1,77,29.91,10.0,SSE,9.2,-,N/A,,Clear,150,2012-10-09 13:54:00
10:54 AM,62.1,48.9,62,29.89,10.0,South,19.6,27.6,N/A,,Clear,180,2012-10-09 15:54:00
11:54 AM,66.0,50.0,56,29.88,10.0,South,13.8,-,N/A,,Clear,180,2012-10-09 16:54:00
12:54 PM,66.0,51.1,59,29.89,10.0,SSW,11.5,-,N/A,,Mostly Cloudy,210,2012-10-09 17:54:00
1:54 PM,64.9,51.1,61,29.88,10.0,Calm,Calm,-,N/A,,Overcast,0,2012-10-09 18:54:00
2:54 PM,66.9,51.1,57,29.87,10.0,East,4.6,-,N/A,,Overcast,100,2012-10-09 19:54:00
3:54 PM,68.0,51.1,55,29.89,10.0,NE,5.8,-,N/A,,Overcast,50,2012-10-09 20:54:00
4:54 PM,66.9,51.1,57,29.91,10.0,NE,8.1,-,N/A,,Overcast,40,2012-10-09 21:54:00
5:54 PM,68.0,50.0,52,29.94,10.0,North,10.4,-,N/A,,Overcast,10,2012-10-09 22:54:00
6:54 PM,64.0,45.0,50,29.99,10.0,North,16.1,26.5,N/A,,Overcast,10,2012-10-09 23:54:00
7:54 PM,60.1,43.0,53,30.02,10.0,NNE,17.3,23.0,N/A,,Clear,20,2012-10-10 00:54:00
8:54 PM,57.0,42.1,57,30.08,10.0,North,11.5,-,N/A,,Clear,10,2012-10-10 01:54:00
9:54 PM,54.0,43.0,66,30.11,10.0,NNE,9.2,-,N/A,,Clear,20,2012-10-10 02:54:00
10:54 PM,52.0,43.0,71,30.14,10.0,NNE,6.9,-,N/A,,Clear,30,2012-10-10 03:54:00
11:54 PM,50.0,42.1,74,30.16,10.0,North,12.7,-,N/A,,Clear,10,2012-10-10 04:54:00